Location: Newark
(47.5833°N, 8.1500°E)
Time: 11:40:06
(UTC+00:00)

Transit 2A - Pass Details

Date: 30 October 2020
Orbit: 595 x 964 km, 66.7° (Epoch: 27 November)

Event Time Altitude Azimuth Distance (km) Brightness Sun altitude
Rises 03:57:16 0° 297° (WNW) 3,630 - -22.6°
Reaches altitude 10° 04:01:42 10° 326° (NW) 2,639 - -21.9°
Exits shadow 04:02:22 11° 332° (NNW) 2,550 8.4 -21.8°
Maximum altitude 04:04:14 13° 350° (N) 2,422 8.5 -21.5°
Drops below altitude 10° 04:06:42 10° 15° (NNE) 2,561 8.9 -21.0°
Sets 04:10:52 0° 44° (NE) 3,413 10.0 -20.3°
